GW4501 Weather Reports


time (UTC)temp
C
wind
direction
speed
KPH
gust
KPH
rain 1hr
cm
rain 24hr
cm
rain mn
cm
humidity
%
barometer
mb
20260906022350 25 230 0.0 0.0 0.00 0.05 0.05 90 1012.6
20260906021846 25 228 1.6 1.6 0.00 0.05 0.05 90 1012.7
20260906021345 25 232 0.0 1.6 0.00 0.05 0.05 90 1012.6
20260906020839 25 234 3.2 3.2 0.00 0.05 0.05 90 1012.5
20260906020339 25 230 0.0 0.0 0.00 0.05 0.05 90 1012.7
20260906015834 25 230 0.0 0.0 0.00 0.05 0.05 89 1012.4
20260906015332 26 230 0.0 0.0 0.00 0.05 0.05 88 1012.6
20260906014827 26 236 0.0 0.0 0.00 0.05 0.05 86 1012.4
20260906014322 26 234 0.0 0.0 0.00 0.05 0.05 86 1012.4
20260906013818 26 220 0.0 0.0 0.00 0.05 0.05 85 1012.4
20260906013313 26 232 0.0 0.0 0.00 0.05 0.05 85 1012.1
20260906012809 26 219 0.0 0.0 0.00 0.05 0.05 85 1012.3
20260906012309 26 226 0.0 0.0 0.00 0.05 0.05 83 1012.1
20260906011804 26 227 0.0 0.0 0.00 0.05 0.05 83 1011.9
20260906011303 26 231 0.0 1.6 0.00 0.05 0.05 83 1012.0
20260906010759 26 226 0.0 0.0 0.00 0.05 0.05 83 1012.3
20260906010256 26 226 0.0 1.6 0.00 0.05 0.05 83 1012.3
20260906005750 27 230 1.6 3.2 0.00 0.05 0.05 83 1012.4
20260906005250 26 221 0.0 0.0 0.00 0.05 0.05 83 1012.5
20260906004749 27 230 0.0 0.0 0.00 0.05 0.05 83 1012.5
20260906004244 27 218 0.0 0.0 0.00 0.05 0.05 83 1012.6
20260906003739 26 239 1.6 1.6 0.00 0.05 0.05 84 1012.5
20260906003235 27 244 0.0 0.0 0.00 0.05 0.05 84 1012.4
20260906002734 27 245 0.0 0.0 0.00 0.05 0.05 82 1012.5
20260906002229 27 244 0.0 0.0 0.00 0.05 0.05 82 1012.7
20260906001724 27 230 0.0 1.6 0.00 0.05 0.05 82 1012.4
20260906001219 27 224 0.0 0.0 0.00 0.05 0.05 81 1012.6
20260906000715 27 230 0.0 0.0 0.00 0.05 0.05 80 1012.7
20260906000212 28 230 0.0 0.0 0.00 0.05 0.05 78 1012.8
20260905235709 28 220 0.0 0.0 0.00 0.05 0.05 77 1012.4
20260905235204 28 228 1.6 1.6 0.00 0.05 0.05 76 1012.4
20260905234659 28 231 1.6 1.6 0.00 0.05 0.05 75 1012.4
20260905234155 28 228 0.0 1.6 0.00 0.05 0.05 75 1012.4
20260905233650 28 221 0.0 0.0 0.00 0.05 0.05 75 1012.4
20260905233149 29 231 0.0 0.0 0.00 0.05 0.05 75 1012.2
20260905232644 29 232 1.6 1.6 0.00 0.05 0.05 75 1012.3
20260905232140 30 228 1.6 3.2 0.00 0.05 0.05 75 1012.3
20260905231635 30 213 1.6 1.6 0.00 0.05 0.05 74 1012.3
20260905231131 30 229 0.0 0.0 0.00 0.05 0.05 72 1012.0
20260905230627 30 228 0.0 0.0 0.00 0.05 0.05 70 1012.1
20260905230124 30 237 0.0 0.0 0.00 0.05 0.05 69 1012.0
20260905225618 30 239 1.6 3.2 0.00 0.05 0.05 68 1012.2
20260905225113 31 211 1.6 1.6 0.00 0.05 0.05 66 1012.1
20260905224608 31 226 1.6 1.6 0.00 0.05 0.05 62 1012.2
20260905224107 31 228 1.6 1.6 0.00 0.05 0.05 60 1012.3
20260905223604 31 225 1.6 3.2 0.00 0.05 0.05 61 1012.2
20260905223101 31 224 1.6 1.6 0.00 0.05 0.05 61 1012.2
20260905222601 32 237 1.6 1.6 0.00 0.05 0.05 62 1012.2
20260905222056 31 228 1.6 1.6 0.00 0.05 0.05 61 1012.6
20260905221552 32 218 3.2 3.2 0.00 0.05 0.05 61 1012.2
20260905221048 31 218 0.0 0.0 0.00 0.05 0.05 61 1012.4
20260905220543 31 223 1.6 1.6 0.00 0.05 0.05 61 1012.4
20260905220039 32 222 1.6 1.6 0.00 0.05 0.05 60 1012.6
20260905215538 31 229 0.0 1.6 0.00 0.05 0.05 60 1012.2
20260905215035 32 226 1.6 1.6 0.00 0.05 0.05 59 1012.3
20260905214531 31 238 1.6 1.6 0.00 0.05 0.05 60 1012.5
20260905214025 31 121 1.6 3.2 0.00 0.05 0.05 58 1012.5
20260905213521 31 206 3.2 4.8 0.00 0.05 0.05 61 1012.5
20260905213016 32 195 3.2 3.2 0.00 0.05 0.05 60 1012.5
20260905212511 32 226 3.2 3.2 0.00 0.05 0.05 60 1012.8
20260905212010 31 230 0.0 1.6 0.00 0.05 0.05 63 1012.6
20260905211506 30 238 0.0 0.0 0.00 0.05 0.05 76 1012.6
20260905211002 29 237 0.0 0.0 0.00 0.05 0.05 78 1012.7
20260905210457 29 238 0.0 0.0 0.00 0.05 0.05 78 1012.7
20260905205956 29 238 0.0 0.0 0.00 0.05 0.05 75 1012.6
20260905205451 29 238 0.0 0.0 0.00 0.05 0.05 75 1012.9
20260905204950 29 238 0.0 0.0 0.00 0.05 0.05 75 1012.8
20260905204446 28 238 0.0 0.0 0.00 0.05 0.05 72 1012.7
20260905203945 28 238 0.0 0.0 0.00 0.05 0.05 72 1012.9
20260905203440 28 239 0.0 0.0 0.00 0.05 0.05 73 1013.0
20260905202936 28 239 0.0 0.0 0.00 0.05 0.05 74 1013.0
20260905202431 28 240 0.0 0.0 0.00 0.05 0.05 71 1013.3
20260905201927 28 240 0.0 0.0 0.00 0.05 0.05 72 1013.2
20260905201422 28 241 0.0 1.6 0.00 0.05 0.05 75 1013.1
20260905200921 28 240 0.0 0.0 0.00 0.05 0.05 79 1013.2
20260905200417 27 226 0.0 0.0 0.00 0.05 0.05 80 1013.3
20260905195915 28 232 0.0 0.0 0.00 0.05 0.05 75 1013.3
20260905195411 27 227 0.0 0.0 0.00 0.05 0.05 78 1013.3
20260905194907 25 233 0.0 0.0 0.00 0.05 0.05 89 1013.4
20260905194405 23 246 0.0 1.6 0.00 0.05 0.05 92 1013.9
20260905193900 23 230 0.0 0.0 0.00 0.05 0.05 90 1013.8
20260905193355 22 235 4.8 4.8 0.00 0.05 0.05 93 1013.7
20260905192850 23 221 0.0 1.6 0.00 0.05 0.05 92 1013.4
20260905192346 23 224 0.0 0.0 0.00 0.05 0.05 89 1014.0
20260905191845 23 223 0.0 0.0 0.00 0.05 0.05 92 1014.2
20260905191345 23 230 0.0 0.0 0.13 0.05 0.05 92 1014.4
20260905190843 24 231 0.0 0.0 0.13 0.05 0.05 90 1014.6
20260905190342 25 236 0.0 0.0 0.18 0.03 0.03 87 1014.5
20260905185841 26 251 0.0 1.6 0.18 0.03 0.03 82 1014.9
20260905185337 28 259 1.6 1.6 0.00 0.00 0.00 73 1014.4
20260905184835 30 276 3.2 4.8 0.00 0.00 0.00 72 1014.4
20260905184335 31 254 1.6 3.2 0.00 0.00 0.00 72 1014.2
20260905183833 32 355 6.4 8.0 0.00 0.00 0.00 66 1014.3
20260905183329 34 235 0.0 0.0 0.00 0.00 0.00 58 1014.0
20260905182823 35 223 0.0 0.0 0.00 0.00 0.00 52 1014.1
20260905182323 36 237 0.0 0.0 0.00 0.00 0.00 52 1014.1
20260905181819 35 256 1.6 1.6 0.00 0.00 0.00 57 1014.0
20260905181318 35 255 1.6 1.6 0.00 0.00 0.00 52 1014.3
20260905180812 36 261 1.6 1.6 0.00 0.00 0.00 55 1014.2
20260905180307 35 236 0.0 0.0 0.00 0.00 0.00 56 1014.3
20260905175802 35 253 1.6 1.6 0.00 0.00 0.00 58 1014.4
20260905175257 34 254 1.6 1.6 0.00 0.00 0.00 59 1014.4
20260905174752 35 247 1.6 1.6 0.00 0.00 0.00 62 1014.2
20260905174247 35 241 0.0 0.0 0.00 0.00 0.00 60 1014.3
20260905173738 34 239 1.6 1.6 0.00 0.00 0.00 62 1014.2
20260905173233 35 240 0.0 1.6 0.00 0.00 0.00 59 1014.3
20260905172732 35 248 1.6 1.6 0.00 0.00 0.00 57 1014.4
20260905172227 35 279 1.6 3.2 0.00 0.00 0.00 61 1014.5
20260905171723 34 267 3.2 3.2 0.00 0.00 0.00 65 1014.5
20260905171219 34 241 0.0 1.6 0.00 0.00 0.00 62 1014.6
20260905170716 33 262 1.6 3.2 0.00 0.00 0.00 60 1014.6
20260905170215 34 206 0.0 1.6 0.00 0.00 0.00 62 1014.7
20260905165709 33 236 0.0 1.6 0.00 0.00 0.00 64 1015.0
20260905165205 33 268 1.6 1.6 0.00 0.00 0.00 62 1015.0
20260905164659 34 244 0.0 0.0 0.00 0.00 0.00 64 1014.8
20260905164159 33 245 1.6 1.6 0.00 0.00 0.00 63 1014.9
20260905163655 33 215 0.0 0.0 0.00 0.00 0.00 66 1015.1
20260905163151 33 203 3.2 3.2 0.00 0.00 0.00 63 1015.1
20260905162647 33 240 1.6 1.6 0.00 0.00 0.00 65 1015.3
20260905162147 33 221 0.0 0.0 0.00 0.00 0.00 65 1015.3
20260905161647 34 224 0.0 1.6 0.00 0.00 0.00 65 1015.2
20260905161144 33 223 0.0 0.0 0.00 0.00 0.00 66 1015.3
20260905160638 33 197 1.6 1.6 0.00 0.00 0.00 66 1015.3
20260905160132 33 231 1.6 1.6 0.00 0.00 0.00 71 1015.1
20260905155627 32 188 1.6 1.6 0.00 0.00 0.00 70 1015.3
20260905155125 32 221 3.2 3.2 0.00 0.00 0.00 71 1015.3
20260905154620 32 224 0.0 0.0 0.00 0.00 0.00 72 1015.4
20260905154116 31 224 0.0 0.0 0.00 0.00 0.00 73 1015.7
20260905153611 31 238 0.0 0.0 0.00 0.00 0.00 73 1015.7
20260905153106 31 219 0.0 0.0 0.00 0.00 0.00 72 1015.6
20260905152602 31 224 0.0 0.0 0.00 0.00 0.00 73 1015.4
20260905152056 30 229 1.6 3.2 0.00 0.00 0.00 75 1015.2
20260905151551 31 204 0.0 1.6 0.00 0.00 0.00 72 1015.6
20260905151046 31 233 1.6 1.6 0.00 0.00 0.00 73 1015.3
20260905150542 30 227 1.6 1.6 0.00 0.00 0.00 74 1015.7
20260905150040 30 222 1.6 3.2 0.00 0.00 0.00 73 1015.7
20260905145533 31 246 1.6 1.6 0.00 0.00 0.00 73 1015.6
20260905145032 30 234 1.6 1.6 0.00 0.00 0.00 74 1015.6
20260905144528 30 222 3.2 3.2 0.00 0.00 0.00 76 1015.5
20260905144026 30 221 0.0 0.0 0.00 0.00 0.00 79 1015.6
20260905143526 28 207 0.0 0.0 0.00 0.00 0.00 80 1015.6
20260905143021 28 228 0.0 1.6 0.00 0.00 0.00 83 1015.8
20260905142520 27 232 3.2 4.8 0.00 0.00 0.00 83 1015.8
20260905142015 28 226 0.0 1.6 0.00 0.00 0.00 81 1015.7
20260905141514 27 220 0.0 0.0 0.00 0.00 0.00 83 1015.7
20260905141012 26 224 0.0 1.6 0.00 0.00 0.00 85 1015.6
20260905140506 26 231 1.6 3.2 0.00 0.00 0.00 86 1015.7
20260905140005 26 206 1.6 1.6 0.00 0.00 0.00 86 1015.4
20260905135501 26 201 1.6 1.6 0.00 0.00 0.00 88 1015.8
20260905134956 25 221 0.0 0.0 0.00 0.00 0.00 89 1015.8
20260905134455 25 226 0.0 1.6 0.00 0.00 0.00 89 1015.8
20260905133954 25 230 0.0 0.0 0.00 0.00 0.00 90 1015.6
20260905133449 25 223 0.0 1.6 0.00 0.00 0.00 91 1015.7
20260905132944 25 212 1.6 1.6 0.00 0.00 0.00 91 1015.9
20260905132439 25 226 0.0 0.0 0.00 0.00 0.00 92 1015.7
20260905131939 24 203 0.0 0.0 0.00 0.00 0.00 93 1016.1
20260905131436 24 222 0.0 1.6 0.00 0.00 0.00 94 1016.0
20260905130935 24 228 0.0 0.0 0.00 0.00 0.00 95 1016.3
20260905130429 23 226 1.6 1.6 0.00 0.00 0.00 95 1016.1
20260905125929 23 222 0.0 0.0 0.00 0.00 0.00 95 1016.0
20260905125424 23 230 0.0 0.0 0.00 0.00 0.00 96 1016.2
20260905124919 23 215 0.0 0.0 0.00 0.00 0.00 96 1016.2
20260905124416 23 232 0.0 1.6 0.00 0.00 0.00 96 1016.3
20260905123916 23 231 0.0 1.6 0.00 0.00 0.00 95 1016.1
20260905123413 23 224 0.0 0.0 0.00 0.00 0.00 96 1016.0
20260905122908 23 228 0.0 0.0 0.00 0.00 0.00 96 1016.2
20260905122407 23 228 0.0 0.0 0.00 0.00 0.00 95 1015.9
20260905121902 23 228 1.6 1.6 0.00 0.00 0.00 96 1015.9
20260905121358 23 230 0.0 1.6 0.00 0.00 0.00 96 1015.7
20260905120858 23 222 0.0 0.0 0.00 0.00 0.00 97 1015.7
20260905120357 23 224 0.0 0.0 0.00 0.00 0.00 96 1015.8
20260905115852 23 226 0.0 0.0 0.00 0.00 0.00 97 1015.7
20260905115352 23 228 0.0 0.0 0.00 0.00 0.00 97 1015.6
20260905114847 23 230 0.0 0.0 0.00 0.00 0.00 97 1015.6
20260905114346 22 221 0.0 0.0 0.00 0.00 0.00 97 1015.8
20260905113839 22 222 0.0 1.6 0.00 0.00 0.00 98 1015.7
20260905113335 22 228 0.0 0.0 0.00 0.00 0.00 98 1015.3
20260905112830 22 230 0.0 1.6 0.00 0.00 0.00 98 1015.3
20260905112325 22 230 0.0 1.6 0.00 0.00 0.00 98 1015.4
20260905111820 22 230 0.0 0.0 0.00 0.00 0.00 99 1015.2
20260905111314 22 230 0.0 0.0 0.00 0.00 0.00 99 1015.2
20260905110814 22 215 0.0 1.6 0.00 0.00 0.00 99 1015.0
20260905110314 22 230 0.0 0.0 0.00 0.00 0.00 99 1015.0
20260905105810 22 230 0.0 0.0 0.00 0.00 0.00 99 1014.9
20260905105308 22 218 0.0 0.0 0.00 0.00 0.00 99 1014.8
20260905104802 22 219 0.0 0.0 0.00 0.00 0.00 99 1015.0
20260905104259 22 219 0.0 0.0 0.00 0.00 0.00 99 1014.7
20260905103759 22 219 0.0 0.0 0.00 0.00 0.00 99 1014.8
20260905103255 22 218 0.0 0.0 0.00 0.00 0.00 99 1014.6
20260905102750 22 217 0.0 0.0 0.00 0.00 0.00 99 1014.8
20260905102247 22 230 0.0 0.0 0.00 0.00 0.00 99 1014.7
20260905101746 22 236 0.0 0.0 0.00 0.00 0.00 98 1014.6
20260905101239 22 230 0.0 0.0 0.00 0.00 0.00 98 1014.6
20260905100734 22 230 0.0 0.0 0.00 0.00 0.00 98 1014.5
20260905100230 22 230 0.0 0.0 0.00 0.00 0.00 98 1014.6
20260905095724 22 230 0.0 0.0 0.00 0.00 0.00 98 1014.6
20260905095224 22 230 0.0 0.0 0.00 0.00 0.00 98 1014.5
20260905094719 22 228 0.0 0.0 0.00 0.00 0.00 98 1014.5
20260905094218 22 228 0.0 0.0 0.00 0.00 0.00 98 1014.3
20260905093713 22 228 0.0 0.0 0.00 0.00 0.00 98 1014.4
20260905093209 22 220 0.0 0.0 0.00 0.00 0.00 98 1014.2
20260905092705 22 228 0.0 0.0 0.00 0.00 0.00 98 1014.4
20260905092200 22 226 0.0 1.6 0.00 0.00 0.00 99 1014.2
20260905091700 22 222 0.0 0.0 0.00 0.00 0.00 99 1014.3
20260905091159 22 222 0.0 0.0 0.00 0.00 0.00 99 1014.2
20260905090659 22 226 0.0 0.0 0.00 0.00 0.00 99 1014.3
20260905090155 22 230 0.0 0.0 0.00 0.00 0.00 99 1014.2
20260905085653 23 234 0.0 0.0 0.00 0.00 0.00 99 1014.4
20260905085149 23 224 0.0 0.0 0.00 0.00 0.00 99 1014.4
20260905084648 23 230 0.0 0.0 0.00 0.00 0.00 99 1014.2
20260905084143 23 223 0.0 1.6 0.00 0.00 0.00 99 1014.3
20260905083637 23 233 0.0 0.0 0.00 0.00 0.00 99 1014.4
20260905083134 23 216 0.0 0.0 0.00 0.00 0.00 99 1014.4
20260905082629 23 216 0.0 0.0 0.00 0.00 0.00 98 1014.3
20260905082125 23 216 0.0 0.0 0.00 0.00 0.00 98 1014.4
20260905081626 23 216 0.0 0.0 0.00 0.00 0.00 98 1014.4
20260905081126 23 217 0.0 0.0 0.00 0.00 0.00 98 1014.6
20260905080620 23 212 0.0 0.0 0.00 0.00 0.00 98 1014.6
20260905080115 23 218 0.0 0.0 0.00 0.00 0.00 98 1014.6
20260905075614 23 220 0.0 0.0 0.00 0.00 0.00 98 1014.6
20260905075113 23 220 0.0 0.0 0.00 0.00 0.00 98 1014.4
20260905074613 23 220 0.0 0.0 0.00 0.00 0.00 98 1014.4
20260905074109 23 220 0.0 0.0 0.00 0.00 0.00 98 1014.7
20260905073604 23 219 0.0 0.0 0.00 0.00 0.00 98 1014.6
20260905073100 23 220 0.0 0.0 0.00 0.00 0.00 98 1014.8
20260905072559 23 218 0.0 0.0 0.00 0.00 0.00 97 1014.5
20260905072055 23 218 0.0 0.0 0.00 0.00 0.00 97 1014.7
20260905071551 23 218 0.0 0.0 0.00 0.00 0.00 97 1014.6
20260905071046 23 218 0.0 0.0 0.00 0.00 0.00 98 1014.9
20260905070541 23 222 0.0 0.0 0.00 0.00 0.00 98 1014.9
20260905070037 23 222 0.0 0.0 0.00 0.00 0.00 98 1015.0
20260905065535 23 221 0.0 0.0 0.00 0.00 0.00 98 1014.8
20260905065030 23 221 0.0 0.0 0.00 0.00 0.00 98 1014.8
20260905064525 23 222 0.0 0.0 0.00 0.00 0.00 98 1014.8
20260905064020 23 223 0.0 1.6 0.00 0.00 0.00 98 1014.7
20260905063519 23 222 0.0 0.0 0.00 0.00 0.00 98 1014.9
20260905063016 23 222 0.0 0.0 0.00 0.00 0.00 98 1014.9
20260905062515 23 222 0.0 0.0 0.00 0.00 0.00 98 1015.0
20260905062010 23 223 0.0 0.0 0.00 0.00 0.00 97 1015.1
20260905061505 23 224 1.6 1.6 0.00 0.00 0.00 97 1015.0
20260905061004 23 223 1.6 1.6 0.00 0.00 0.00 97 1015.0
20260905060501 23 221 0.0 0.0 0.00 0.00 0.00 97 1015.3
20260905060000 23 221 0.0 0.0 0.00 0.00 0.00 97 1015.2
20260905055459 23 221 0.0 0.0 0.00 0.00 0.00 98 1015.3
20260905054954 23 226 0.0 0.0 0.00 0.00 0.00 98 1015.3
20260905054450 23 228 0.0 0.0 0.00 0.00 0.00 98 1015.2
20260905053945 23 228 0.0 0.0 0.00 0.00 0.00 97 1015.3
20260905053440 23 228 0.0 0.0 0.00 0.00 0.00 97 1015.4
20260905052936 23 228 0.0 0.0 0.00 0.00 0.00 97 1015.4
20260905052435 23 228 0.0 0.0 0.00 0.00 0.00 97 1015.1
20260905051934 23 228 0.0 0.0 0.00 0.00 0.00 96 1015.2
20260905051424 24 228 0.0 0.0 0.00 0.00 0.00 96 1015.3
20260905050921 24 229 0.0 0.0 0.00 0.00 0.00 96 1015.2
20260905050412 24 228 0.0 0.0 0.00 0.00 0.00 96 1015.3
20260905045907 24 228 0.0 0.0 0.00 0.30 0.30 96 1015.3
20260905045402 24 228 0.0 0.0 0.00 0.30 0.30 95 1015.2
20260905044857 24 230 0.0 0.0 0.00 0.30 0.30 95 1015.1
20260905044352 25 228 0.0 0.0 0.00 0.30 0.30 94 1015.1
20260905043851 25 230 0.0 0.0 0.00 0.30 0.30 94 1015.1
20260905043345 25 228 0.0 0.0 0.00 0.30 0.30 92 1015.3
20260905042840 25 234 0.0 0.0 0.00 0.30 0.30 90 1015.2
20260905042335 25 235 0.0 0.0 0.00 0.30 0.30 91 1015.1
20260905041829 25 221 0.0 1.6 0.00 0.30 0.30 91 1015.1
20260905041326 25 226 0.0 0.0 0.00 0.30 0.30 91 1015.3
20260905040825 25 222 0.0 0.0 0.00 0.30 0.30 91 1015.2
20260905040324 25 222 0.0 0.0 0.00 0.30 0.30 91 1015.2
20260905035819 25 232 0.0 0.0 0.00 0.30 0.30 90 1015.1
20260905035315 25 232 0.0 0.0 0.00 0.30 0.30 89 1015.5
20260905034811 25 234 0.0 0.0 0.00 0.30 0.30 89 1015.2
20260905034306 25 234 0.0 0.0 0.00 0.30 0.30 89 1015.4
20260905033805 25 234 0.0 0.0 0.00 0.30 0.30 90 1015.4
20260905033301 25 233 0.0 0.0 0.00 0.30 0.30 91 1015.5
20260905032800 25 228 0.0 0.0 0.00 0.30 0.30 91 1015.6
20260905032255 26 228 0.0 0.0 0.00 0.30 0.30 91 1015.7
20260905031750 26 230 0.0 0.0 0.00 0.30 0.30 90 1015.7
20260905031246 26 228 0.0 0.0 0.00 0.30 0.30 88 1015.6
20260905030741 26 224 0.0 0.0 0.00 0.30 0.30 87 1015.6
20260905030236 26 228 0.0 0.0 0.00 0.30 0.30 87 1015.9
20260905025731 27 230 0.0 0.0 0.00 0.30 0.30 86 1015.9
20260905025226 27 235 1.6 1.6 0.00 0.30 0.30 87 1015.7
20260905024722 27 240 0.0 1.6 0.00 0.30 0.30 86 1015.6
20260905024218 27 208 3.2 3.2 0.00 0.30 0.30 86 1015.4
20260905023713 27 204 1.6 1.6 0.00 0.30 0.30 85 1015.7
20260905023213 27 228 1.6 1.6 0.00 0.30 0.30 85 1015.6
20260905022712 27 236 1.6 1.6 0.00 0.30 0.30 85 1015.6